Weather Roundup
Issued by NWS

Home | Current Version | Previous Version | Graphics & Text | Print | Product List | Glossary Off
Versions: 1 2 3 4 5 6 7 8 9 10 11 12 13 14 15 16 17 18 19 20 21 22 23 24 25 26 27 28 29 30 31 32 33 34 35 36 37 38 39 40 41 42 43 44 45 46 47 48 49 50

000
NZUS93 KARX 290410
HRRWXR

CURRENT HOURLY OBSERVATIONS ACROSS
MUCH OF THE UPPER MISSISSIPPI VALLEY
NATIONAL WEATHER SERVICE LA CROSSE WI
1100 PM CDT SAT MAR 28 2015


...SOUTHEAST MINNESOTA...


CITY           SKY/WX    TMP DP  RH WIND       PRES   REMARKS
ROCHESTER      PTCLDY    33  19  56 S20G29    30.03F WCI  21
ROCHESTER/MAYO NOT AVBL
WINONA         CLEAR     36  19  51 SE8       30.10F WCI  29
AUSTIN         PTCLDY    34  21  60 S12G18    30.03F WCI  25
ALBERT LEA     MOCLDY    36  21  55 S15G23    30.00F WCI  26
DODGE CENTER   MOCLDY    34  23  64 S20G25    30.01F WCI  22
PRESTON        PTCLDY    31  19  58 S16G23    30.07F WCI  20
OWATONNA       CLOUDY    36  21  55 S17G24    29.99F WCI  25
FARIBAULT      CLOUDY    37  21  52 S17G28    29.98F WCI  28
$$

...ELSEWHERE IN MINNESOTA...


CITY           SKY/WX    TMP DP  RH WIND       PRES   REMARKS
MINNEAPOLIS    CLOUDY    36  22  56 SE15      29.97F WCI  27
INTNL FALLS    CLOUDY    38  22  52 S14G24    29.71F WCI  30
DULUTH         MOCLDY    34  16  47 S15       29.88F WCI  24
RED WING       PTCLDY    36  18  48 S8G16     30.03F WCI  29
REDWOOD FALLS  CLEAR     39  27  62 S20       29.84F WCI  29
MANKATO        PTCLDY    37  21  52 S16G24    29.95F WCI  28
WORTHINGTON    CLEAR     37  27  65 S23G29    29.86F WCI  26
FAIRMONT       CLEAR     36  21  55 S18       29.92F WCI  25
$$

...SOUTHWEST WISCONSIN...


CITY           SKY/WX    TMP DP  RH WIND       PRES   REMARKS
LA CROSSE      CLEAR     36  16  44 S9        30.12F WCI  29
PRAIRIE DU CHI CLEAR     33  13  43 SE5       30.16F WCI  29
BOSCOBEL       CLEAR     34  13  41 VRB7      30.18F WCI  28
LONE ROCK      CLEAR     30  14  51 SE3       30.20F
PLATTEVILLE    CLEAR     29  18  63 SE8       30.19F WCI  21
FORT MC COY    PTCLDY    34  14  44 S9        30.15F WCI  26
CAMP DOUGLAS   MOCLDY    29  15  55 E1        30.14F
VIROQUA        FAIR      31  17  54 S13       30.12F WCI  22
WIS DELLS      CLEAR     29  15  55 S8        30.17F WCI  21
$$

...ELSEWHERE IN WISCONSIN...


CITY           SKY/WX    TMP DP  RH WIND       PRES   REMARKS
MILWAUKEE      CLEAR     26  12  55 S8        30.25F WCI  18
MADISON        MOCLDY    32  15  49 S6        30.20F WCI  26
GREEN BAY      CLEAR     29  21  72 S10       30.18F WCI  20
EAU CLAIRE     MOCLDY    34  14  43 S13G20    30.05F WCI  25
BLACK RVR FLS  FAIR      32  13  46 S6        30.12F WCI  26
MEDFORD        MOCLDY    30  16  55 S10       30.06F WCI  21
WAUSAU         MOCLDY    32  13  45 S13       30.09F WCI  22
WIS RAPIDS     PTCLDY    30  11  45 S8        30.15F WCI  22
MARSHFIELD     MOCLDY    32  14  47 S12       30.11F WCI  23
RICE LAKE      MOCLDY    33  17  51 SE15      30.02F WCI  22
$$

...NORTHEAST IOWA...


CITY           SKY/WX    TMP DP  RH WIND       PRES   REMARKS
DECORAH        PTCLDY    32  18  55 S12       30.10F WCI  23
MASON CITY     PTCLDY    34  21  59 S17G25    30.04F WCI  23
CHARLES CITY   PTCLDY    34  18  51 SE14G21   30.09F WCI  24
OELWEIN        CLEAR     32  19  59 S13       30.13F WCI  22
$$

...ELSEWHERE IN IOWA...


CITY           SKY/WX    TMP DP  RH WIND       PRES   REMARKS
DES MOINES     CLEAR     39  22  50 SE14      30.09F WCI  31
IOWA CITY      PTCLDY    30  18  60 SE8       30.21F WCI  22
FORT DODGE     CLEAR     39  21  48 S15G21    30.02F WCI  31
$$

...NORTHERN ILLINOIS...


CITY           SKY/WX    TMP DP  RH WIND       PRES   REMARKS
CHICAGO-OHARE  FAIR      24  13  62 S7        30.27F WCI  16
CHICAGO-MIDWAY CLEAR     29  15  56 SE6       30.29F WCI  23
MOLINE         PTCLDY    31  15  52 SE9       30.23F WCI  23
ROCKFORD       CLEAR     29  15  56 S10       30.26F WCI  20
PEORIA         CLEAR     31  18  58 S7        30.28F WCI  24
$$

NOTE: "FAIR" INDICATES FEW OR NO CLOUDS BELOW 12,000 FEET WITH NO
SIGNIFICANT WEATHER AND/OR OBSTRUCTIONS TO VISIBILITY. WIND
SPEEDS ARE IN MILES-PER-HOUR.



USA.gov is the U.S. government's official web portal to all federal, state and local government web resources and services.